Powrót do katalogu

AE5RC

AktywnyNaukaSSO
NORAD 66677·PAYLOAD·🇦🇿 Azerbaijan

Wystrzelony Nov 28, 2025 z Vandenberg Space Force Base

Loading…

Następne Przeloty (najbliższe 24 godziny)

TLE

ŚwieżeSource: Space-Track

Epoka: Sep 14, 2026, 10:54 UTC

1 66677U 25276M   26257.45465576  .00011136  00000-0  45144-3 0  9991
2 66677  97.4104 330.3593 0006107  70.9917 289.1982 15.24793391 44047

Śledź AE5RC w czasie rzeczywistym z AllMySat

Download on the App Store